GW3577 Weather Reports


Display with metric or nautical units.
time (UTC)temp
F
wind
direction
speed
MPH
gust
MPH
rain 1hr
in
rain 24hr
in
rain mn
in
humidity
%
barometer
mb
20260508062054 42 334 0.0 0.0 0.00 0.00 0.00 98 1014.7
20260508061551 42 324 4.0 6.0 0.00 0.00 0.00 99 1014.3
20260508061048 42 298 0.0 3.0 0.00 0.00 0.00 98 1014.7
20260508060545 42 302 1.0 4.0 0.00 0.00 0.00 99 1014.3
20260508060043 43 302 1.0 4.0 0.00 0.00 0.00 99 1014.3
20260508055538 42 295 0.0 2.0 0.00 0.00 0.00 99 1014.3
20260508055035 42 295 0.0 0.0 0.00 0.00 0.00 100 1014.3
20260508054531 43 295 0.0 0.0 0.00 0.00 0.00 100 1014.3
20260508054029 42 295 0.0 0.0 0.00 0.00 0.00 100 1014.3
20260508053525 42 295 0.0 0.0 0.00 0.00 0.00 100 1014.3
20260508053024 43 295 0.0 0.0 0.00 0.00 0.00 100 1014.3
20260508052521 42 295 0.0 0.0 0.00 0.00 0.00 100 1014.3
20260508052017 42 295 1.0 4.0 0.00 0.00 0.00 100 1014.0
20260508051514 43 47 0.0 0.0 0.00 0.00 0.00 100 1014.0
20260508051009 43 47 0.0 0.0 0.00 0.00 0.00 100 1014.3
20260508050506 42 47 0.0 0.0 0.00 0.00 0.00 100 1014.3
20260508050003 41 301 0.0 0.0 0.00 0.00 0.00 100 1014.0
20260508045459 41 301 0.0 0.0 0.00 0.00 0.00 100 1014.0
20260508044957 41 301 0.0 0.0 0.00 0.00 0.00 99 1014.0
20260508044454 41 301 0.0 0.0 0.00 0.00 0.00 99 1014.3
20260508043949 42 301 0.0 0.0 0.00 0.00 0.00 100 1014.0
20260508043447 42 301 0.0 0.0 0.00 0.00 0.00 99 1014.0
20260508042943 42 301 0.0 0.0 0.00 0.00 0.00 99 1014.0
20260508042441 43 301 0.0 0.0 0.00 0.00 0.00 99 1014.0
20260508041937 43 301 0.0 0.0 0.00 0.00 0.00 100 1014.0
20260508041434 43 301 0.0 0.0 0.00 0.00 0.00 99 1014.0
20260508040931 44 301 0.0 2.0 0.00 0.00 0.00 99 1014.0
20260508040428 45 301 0.0 0.0 0.00 0.00 0.00 99 1014.0
20260508035926 45 301 0.0 0.0 0.00 0.12 0.12 99 1014.0
20260508035422 45 301 0.0 0.0 0.00 0.12 0.12 99 1013.7
20260508034919 44 301 0.0 0.0 0.00 0.12 0.12 99 1013.7
20260508034417 45 301 0.0 0.0 0.00 0.12 0.12 99 1013.7
20260508033913 46 301 0.0 0.0 0.00 0.12 0.12 100 1013.7
20260508033412 46 301 0.0 0.0 0.00 0.12 0.12 100 1013.7
20260508032909 45 301 0.0 0.0 0.00 0.12 0.12 100 1013.7
20260508032406 45 301 0.0 0.0 0.00 0.12 0.12 100 1013.7
20260508031902 46 301 3.0 4.0 0.00 0.12 0.12 100 1013.7
20260508031400 46 142 0.0 0.0 0.00 0.12 0.12 100 1013.7
20260508030855 46 142 0.0 0.0 0.00 0.12 0.12 100 1013.7
20260508030353 46 142 0.0 0.0 0.00 0.12 0.12 100 1013.7
20260508025850 46 142 0.0 2.0 0.00 0.12 0.12 99 1013.7
20260508025347 47 142 0.0 0.0 0.00 0.12 0.12 99 1013.7
20260508024843 46 142 0.0 0.0 0.00 0.12 0.12 99 1013.7
20260508024340 47 142 0.0 0.0 0.00 0.12 0.12 99 1013.3
20260508023837 47 142 1.0 2.0 0.00 0.12 0.12 99 1013.3
20260508023334 48 142 1.0 2.0 0.00 0.12 0.12 98 1013.3
20260508022830 48 142 0.0 1.0 0.00 0.12 0.12 98 1013.3
20260508022326 49 142 0.0 0.0 0.00 0.12 0.12 98 1013.3
20260508021824 50 142 0.0 0.0 0.00 0.12 0.12 98 1013.3
20260508021319 50 142 0.0 0.0 0.00 0.12 0.12 98 1013.3
20260508020816 51 142 0.0 0.0 0.00 0.12 0.12 98 1013.3
20260508020314 51 142 0.0 0.0 0.00 0.12 0.12 98 1013.0
20260508015810 51 142 0.0 0.0 0.00 0.12 0.12 98 1013.0
20260508015308 51 142 0.0 0.0 0.00 0.12 0.12 98 1013.0
20260508014804 51 142 0.0 0.0 0.00 0.12 0.12 98 1013.0
20260508014302 52 142 0.0 0.0 0.00 0.12 0.12 97 1013.0
20260508013757 52 142 0.0 0.0 0.00 0.12 0.12 97 1013.0
20260508013253 52 142 0.0 0.0 0.00 0.12 0.12 97 1012.6
20260508012751 52 142 0.0 0.0 0.00 0.12 0.12 97 1012.6
20260508012248 52 142 0.0 0.0 0.00 0.12 0.12 97 1012.6
20260508011746 52 142 0.0 0.0 0.00 0.12 0.12 97 1012.6
20260508011243 52 142 0.0 0.0 0.00 0.12 0.12 97 1012.6
20260508010740 52 142 0.0 0.0 0.00 0.12 0.12 97 1012.6
20260508010238 52 142 0.0 0.0 0.00 0.12 0.12 97 1012.6
20260508005735 52 142 0.0 0.0 0.00 0.12 0.12 97 1012.6
20260508005232 52 142 0.0 0.0 0.00 0.12 0.12 97 1012.3
20260508004727 52 142 0.0 0.0 0.00 0.12 0.12 97 1012.3
20260508004224 52 142 0.0 0.0 0.00 0.12 0.12 97 1012.3
20260508003720 52 142 0.0 0.0 0.00 0.12 0.12 96 1012.3
20260508003218 52 142 0.0 0.0 0.00 0.12 0.12 97 1012.3
20260508002714 52 142 0.0 0.0 0.00 0.12 0.12 97 1012.3
20260508002212 52 142 0.0 0.0 0.00 0.12 0.12 97 1012.6
20260508001707 52 142 0.0 0.0 0.00 0.12 0.12 97 1012.3
20260508001203 52 142 0.0 0.0 0.00 0.12 0.12 97 1012.3
20260508000659 52 142 0.0 0.0 0.00 0.12 0.12 97 1012.3
20260508000157 52 142 0.0 0.0 0.00 0.12 0.12 96 1012.3
20260507235653 52 142 0.0 0.0 0.00 0.12 0.12 96 1012.3
20260507235151 52 142 0.0 0.0 0.00 0.12 0.12 96 1012.3
20260507234647 52 142 0.0 0.0 0.00 0.12 0.12 96 1012.0
20260507234144 52 142 0.0 0.0 0.00 0.12 0.12 96 1012.0
20260507233641 52 142 0.0 0.0 0.00 0.12 0.12 96 1012.0
20260507233139 52 142 0.0 0.0 0.00 0.12 0.12 96 1012.0
20260507232635 52 142 0.0 0.0 0.00 0.12 0.12 95 1012.0
20260507232133 52 142 0.0 0.0 0.00 0.12 0.12 96 1012.0
20260507231629 52 142 0.0 0.0 0.00 0.12 0.12 96 1011.6
20260507231126 52 142 0.0 2.0 0.00 0.12 0.12 96 1011.6
20260507230622 52 142 0.0 0.0 0.00 0.12 0.12 96 1011.6
20260507230120 52 142 0.0 0.0 0.00 0.12 0.12 96 1011.6
20260507225614 52 142 0.0 0.0 0.00 0.12 0.12 96 1011.6
20260507225111 52 142 0.0 0.0 0.00 0.12 0.12 96 1011.6
20260507224607 52 142 0.0 0.0 0.00 0.12 0.12 95 1011.6
20260507224104 52 142 0.0 0.0 0.00 0.12 0.12 95 1011.6
20260507223559 52 142 0.0 0.0 0.00 0.12 0.12 95 1011.6
20260507223056 52 142 0.0 0.0 0.00 0.12 0.12 95 1011.6
20260507222554 52 142 0.0 0.0 0.00 0.12 0.12 96 1011.6
20260507222050 52 142 0.0 2.0 0.00 0.12 0.12 95 1011.6
20260507221547 52 142 0.0 0.0 0.00 0.12 0.12 96 1011.3
20260507221044 52 142 0.0 0.0 0.00 0.12 0.12 96 1011.6
20260507220541 52 142 0.0 2.0 0.00 0.12 0.12 96 1011.3
20260507220038 52 142 0.0 1.0 0.00 0.12 0.12 96 1011.3
20260507215534 52 142 0.0 1.0 0.00 0.12 0.12 96 1011.3
20260507215032 52 142 0.0 2.0 0.00 0.12 0.12 96 1011.3
20260507214530 52 142 1.0 2.0 0.00 0.12 0.12 95 1011.3
20260507214025 52 142 0.0 2.0 0.00 0.12 0.12 94 1011.3
20260507213521 52 142 0.0 1.0 0.00 0.12 0.12 94 1011.6
20260507213019 52 142 1.0 2.0 0.00 0.12 0.12 94 1011.3
20260507212514 52 142 0.0 2.0 0.00 0.12 0.12 94 1011.3
20260507212011 52 142 1.0 4.0 0.00 0.12 0.12 94 1011.3
20260507211508 52 142 2.0 3.0 0.00 0.12 0.12 93 1011.3
20260507211004 52 142 3.0 4.0 0.00 0.12 0.12 94 1011.3
20260507210501 52 108 1.0 4.0 0.00 0.12 0.12 92 1010.9
20260507205958 52 108 3.0 4.0 0.00 0.12 0.12 93 1010.9
20260507205455 53 127 6.0 10.0 0.00 0.12 0.12 93 1011.3
20260507204951 54 195 0.0 0.0 0.00 0.12 0.12 93 1010.9
20260507204448 54 195 0.0 0.0 0.00 0.12 0.12 91 1011.3
20260507203945 54 195 0.0 0.0 0.00 0.12 0.12 91 1011.3
20260507203443 54 195 0.0 0.0 0.00 0.12 0.12 92 1011.3
20260507202939 54 195 0.0 0.0 0.00 0.12 0.12 93 1011.3
20260507202436 54 195 0.0 0.0 0.00 0.12 0.12 92 1011.3
20260507201932 54 195 0.0 1.0 0.00 0.12 0.12 92 1011.3
20260507201432 54 195 0.0 2.0 0.00 0.12 0.12 93 1011.3
20260507200929 53 195 1.0 2.0 0.00 0.12 0.12 94 1011.3
20260507200425 53 195 0.0 2.0 0.00 0.12 0.12 94 1011.6
20260507195921 53 195 0.0 2.0 0.00 0.12 0.12 94 1011.6
20260507195419 53 195 0.0 2.0 0.00 0.12 0.12 96 1011.6
20260507194916 53 195 0.0 2.0 0.00 0.12 0.12 96 1011.6
20260507194412 53 195 0.0 3.0 0.00 0.12 0.12 95 1012.0
20260507193908 53 195 1.0 2.0 0.00 0.11 0.11 96 1011.6
20260507193406 53 195 0.0 0.0 0.00 0.10 0.10 96 1011.6
20260507192902 53 195 2.0 4.0 0.00 0.10 0.10 96 1012.0
20260507192358 53 195 1.0 2.0 0.00 0.10 0.10 96 1012.0
20260507191855 53 195 0.0 2.0 0.00 0.09 0.09 96 1011.6
20260507191351 53 224 0.0 4.0 0.00 0.09 0.09 96 1012.0
20260507190848 53 137 0.0 2.0 0.00 0.09 0.09 96 1012.0
20260507190346 53 137 0.0 2.0 0.00 0.09 0.09 96 1012.3
20260507185845 53 137 0.0 3.0 0.00 0.09 0.09 95 1012.0
20260507185342 53 166 2.0 3.0 0.00 0.09 0.09 95 1012.3
20260507184838 53 167 0.0 0.0 0.00 0.09 0.09 95 1012.3
20260507184336 53 167 1.0 2.0 0.00 0.09 0.09 95 1012.3
20260507183833 53 167 0.0 2.0 0.00 0.09 0.09 96 1012.0
20260507183330 53 220 1.0 4.0 0.00 0.08 0.08 96 1012.3
20260507182828 53 131 0.0 3.0 0.00 0.07 0.07 96 1012.3
20260507182323 53 131 3.0 4.0 0.00 0.07 0.07 96 1012.0
20260507181820 53 131 3.0 5.0 0.00 0.07 0.07 96 1012.3
20260507181316 53 127 4.0 6.0 0.00 0.07 0.07 96 1012.0
20260507180813 53 114 2.0 4.0 0.00 0.07 0.07 96 1012.0
20260507180309 54 114 4.0 6.0 0.00 0.07 0.07 95 1012.0
20260507175805 54 114 0.0 2.0 0.00 0.06 0.06 94 1012.3
20260507175306 54 114 0.0 2.0 0.00 0.06 0.06 94 1012.0
20260507174759 54 122 3.0 5.0 0.00 0.06 0.06 94 1012.0
20260507174257 54 159 0.0 2.0 0.00 0.06 0.06 95 1012.0
20260507173755 54 138 1.0 3.0 0.00 0.06 0.06 94 1012.0
20260507173252 54 147 2.0 6.0 0.00 0.06 0.06 94 1012.0
20260507172748 54 153 1.0 4.0 0.00 0.06 0.06 94 1012.3
20260507172245 54 153 2.0 4.0 0.00 0.06 0.06 95 1012.3
20260507171740 54 153 1.0 3.0 0.00 0.06 0.06 94 1012.3
20260507171238 55 107 3.0 5.0 0.00 0.06 0.06 94 1012.3
20260507170734 54 130 4.0 6.0 0.00 0.06 0.06 94 1012.3
20260507170231 54 122 4.0 6.0 0.00 0.06 0.06 93 1012.3
20260507165727 55 106 3.0 6.0 0.00 0.06 0.06 94 1012.3
20260507165223 54 106 2.0 4.0 0.00 0.06 0.06 94 1012.6
20260507164719 55 106 2.0 5.0 0.00 0.06 0.06 94 1012.6
20260507164217 55 106 1.0 3.0 0.00 0.06 0.06 95 1012.6
20260507163714 54 116 2.0 4.0 0.00 0.06 0.06 95 1012.6
20260507163212 54 116 3.0 4.0 0.00 0.06 0.06 94 1012.6
20260507162707 55 116 2.0 4.0 0.00 0.06 0.06 96 1012.6
20260507162203 54 116 2.0 4.0 0.00 0.06 0.06 95 1012.6
20260507161700 54 116 2.0 4.0 0.00 0.06 0.06 96 1012.6
20260507161156 54 95 4.0 6.0 0.00 0.06 0.06 96 1012.6
20260507160653 54 91 0.0 2.0 0.00 0.06 0.06 97 1013.0
20260507160149 54 118 3.0 4.0 0.00 0.06 0.06 97 1013.0
20260507155645 54 141 4.0 7.0 0.00 0.06 0.06 97 1013.0
20260507155142 54 124 3.0 5.0 0.00 0.06 0.06 98 1013.0
20260507154638 54 124 0.0 2.0 0.00 0.06 0.06 98 1013.0
20260507154136 54 124 1.0 3.0 0.00 0.06 0.06 98 1013.3
20260507153632 54 124 2.0 4.0 0.00 0.06 0.06 98 1012.6
20260507153129 54 124 3.0 4.0 0.00 0.06 0.06 98 1013.0
20260507152625 54 124 1.0 3.0 0.00 0.06 0.06 98 1013.0
20260507152121 54 124 2.0 2.0 0.00 0.06 0.06 98 1013.0
20260507151617 54 124 1.0 4.0 0.00 0.06 0.06 98 1013.0
20260507151115 54 124 0.0 0.0 0.00 0.06 0.06 98 1013.0
20260507150612 54 124 0.0 0.0 0.00 0.06 0.06 98 1013.0
20260507150108 54 124 0.0 0.0 0.00 0.06 0.06 98 1013.0
20260507145603 54 124 0.0 0.0 0.00 0.06 0.06 98 1013.3
20260507145056 54 124 0.0 0.0 0.00 0.06 0.06 98 1013.3
20260507144552 54 124 0.0 0.0 0.00 0.06 0.06 98 1013.0
20260507144050 54 124 0.0 0.0 0.00 0.06 0.06 98 1012.6
20260507143547 54 124 0.0 0.0 0.00 0.06 0.06 98 1012.6
20260507143044 53 124 0.0 0.0 0.00 0.05 0.05 98 1012.6
20260507142544 53 124 0.0 0.0 0.00 0.05 0.05 98 1013.0
20260507142042 53 124 0.0 0.0 0.00 0.05 0.05 98 1013.0
20260507141538 53 124 0.0 0.0 0.00 0.05 0.05 98 1013.0
20260507141035 53 124 0.0 0.0 0.00 0.05 0.05 98 1013.0
20260507140531 53 124 0.0 0.0 0.00 0.04 0.04 98 1013.0
20260507140029 53 124 0.0 2.0 0.00 0.04 0.04 98 1013.0
20260507135526 53 124 0.0 0.0 0.00 0.03 0.03 98 1013.3
20260507135023 53 124 0.0 0.0 0.00 0.03 0.03 98 1013.3
20260507134519 53 124 0.0 0.0 0.00 0.03 0.03 98 1013.3
20260507134015 53 124 0.0 0.0 0.00 0.03 0.03 98 1013.3
20260507133511 53 124 0.0 0.0 0.00 0.03 0.03 98 1013.3
20260507133010 53 124 0.0 0.0 0.00 0.03 0.03 98 1013.0
20260507132506 53 124 0.0 0.0 0.00 0.03 0.03 98 1013.0
20260507132002 54 124 0.0 0.0 0.00 0.03 0.03 98 1013.3
20260507131459 54 124 0.0 0.0 0.00 0.03 0.03 97 1013.3
20260507130956 54 124 0.0 0.0 0.00 0.03 0.03 98 1013.0
20260507130453 54 124 0.0 0.0 0.47 0.02 0.02 97 1013.0
20260507125952 54 124 0.0 0.0 0.00 0.02 0.02 98 1013.0
20260507125450 54 164 0.0 2.0 0.00 0.02 0.02 98 1013.0
20260507124947 54 41 0.0 0.0 0.00 0.02 0.02 97 1013.0
20260507124443 54 41 0.0 0.0 0.00 0.02 0.02 97 1013.0
20260507123941 54 145 0.0 0.0 0.00 0.02 0.02 98 1013.0
20260507123439 54 145 0.0 0.0 0.00 0.02 0.02 98 1013.0
20260507122935 54 193 0.0 1.0 0.00 0.02 0.02 98 1013.0
20260507122430 54 145 4.0 9.0 0.00 0.02 0.02 97 1012.6
20260507121926 55 194 2.0 4.0 0.00 0.02 0.02 97 1012.6
20260507121422 55 136 0.0 2.0 0.00 0.02 0.02 98 1012.6
20260507120919 55 136 0.0 0.0 0.00 0.02 0.02 97 1012.6
20260507120415 55 136 3.0 6.0 0.00 0.02 0.02 98 1012.6
20260507115911 56 136 3.0 5.0 0.00 0.02 0.02 98 1012.6
20260507115407 56 136 1.0 3.0 0.00 0.02 0.02 98 1012.6
20260507114903 56 136 0.0 1.0 0.00 0.02 0.02 98 1012.3
20260507114400 56 216 0.0 0.0 0.00 0.02 0.02 98 1012.3
20260507113857 56 216 0.0 0.0 0.00 0.02 0.02 98 1012.3
20260507113355 57 216 0.0 2.0 0.00 0.02 0.02 98 1012.3
20260507112852 57 136 3.0 4.0 0.00 0.02 0.02 98 1012.3
20260507112349 57 136 1.0 4.0 0.00 0.02 0.02 98 1012.0
20260507111847 57 136 1.0 3.0 0.00 0.02 0.02 98 1012.0
20260507111343 58 131 4.0 6.0 0.00 0.02 0.02 98 1012.0
20260507110839 58 135 3.0 4.0 0.00 0.02 0.02 98 1012.0
20260507110335 59 131 3.0 5.0 0.00 0.02 0.02 98 1012.0
20260507105833 59 139 1.0 2.0 0.00 0.02 0.02 98 1011.6
20260507105329 59 139 3.0 5.0 0.00 0.02 0.02 98 1011.6
20260507104826 60 40 3.0 8.0 0.00 0.02 0.02 99 1011.6
20260507104322 59 327 0.0 0.0 0.00 0.02 0.02 99 1011.3
20260507103818 59 327 0.0 0.0 0.00 0.02 0.02 99 1011.3
20260507103315 59 327 0.0 0.0 0.00 0.02 0.02 99 1011.3
20260507102812 59 327 0.0 0.0 0.00 0.02 0.02 99 1011.3
20260507102309 59 327 0.0 0.0 0.00 0.02 0.02 99 1011.3
20260507101805 59 327 0.0 0.0 0.00 0.02 0.02 99 1011.3
20260507101304 59 327 0.0 0.0 0.00 0.02 0.02 99 1011.3
20260507100802 59 327 0.0 0.0 0.00 0.02 0.02 98 1011.6
20260507100300 59 327 1.0 3.0 0.00 0.02 0.02 98 1011.3
20260507095758 59 327 0.0 0.0 0.00 0.02 0.02 98 1011.3
20260507095254 60 327 0.0 0.0 0.00 0.02 0.02 98 1011.3
20260507094751 59 327 0.0 0.0 0.00 0.02 0.02 98 1011.3
20260507094248 59 327 0.0 0.0 0.00 0.02 0.02 98 1011.3
20260507093745 59 327 0.0 0.0 0.00 0.02 0.02 99 1011.3
20260507093243 59 327 0.0 1.0 0.00 0.02 0.02 98 1010.9
20260507092741 59 225 0.0 1.0 0.00 0.02 0.02 98 1010.5
20260507092236 60 219 0.0 0.0 0.00 0.02 0.02 98 1010.5
20260507091733 59 219 0.0 0.0 0.00 0.02 0.02 98 1010.9
20260507091230 59 219 0.0 0.0 0.00 0.02 0.02 98 1011.3
20260507090726 59 219 0.0 0.0 0.00 0.02 0.02 99 1011.3
20260507090222 59 219 0.0 0.0 0.00 0.02 0.02 98 1011.6
20260507085719 60 219 1.0 2.0 0.00 0.02 0.02 99 1011.3
20260507085216 60 219 0.0 0.0 0.00 0.02 0.02 98 1011.3
20260507084713 60 219 0.0 0.0 0.00 0.02 0.02 99 1011.3
20260507084209 60 219 0.0 0.0 0.00 0.02 0.02 99 1011.3
20260507083707 60 219 0.0 0.0 0.00 0.02 0.02 99 1010.9
20260507083203 60 219 0.0 0.0 0.00 0.02 0.02 99 1010.9
20260507082659 60 219 0.0 0.0 0.00 0.02 0.02 99 1010.9
20260507082155 61 219 0.0 0.0 0.00 0.02 0.02 99 1010.9
20260507081652 61 323 0.0 0.0 0.00 0.02 0.02 99 1011.3
20260507081148 61 323 0.0 0.0 0.00 0.02 0.02 99 1011.3
20260507080645 61 323 0.0 0.0 0.00 0.02 0.02 99 1011.3
20260507080142 61 56 1.0 4.0 0.00 0.02 0.02 99 1011.3
20260507075642 61 33 0.0 0.0 0.00 0.02 0.02 99 1011.3
20260507075139 61 33 0.0 0.0 0.00 0.02 0.02 99 1010.9
20260507074636 61 87 0.0 0.0 0.00 0.02 0.02 99 1010.9
20260507074134 61 104 0.0 0.0 0.00 0.02 0.02 99 1010.9
20260507073630 61 104 0.0 0.0 0.00 0.02 0.02 99 1010.9
20260507073126 62 104 0.0 0.0 0.00 0.02 0.02 99 1010.5
20260507072624 61 104 0.0 0.0 0.00 0.02 0.02 99 1010.9
20260507072121 61 104 0.0 0.0 0.00 0.02 0.02 99 1010.9
20260507071619 62 104 0.0 0.0 0.00 0.02 0.02 99 1010.9
20260507071115 61 104 2.0 3.0 0.00 0.02 0.02 99 1010.9
20260507070612 62 104 0.0 0.0 0.00 0.02 0.02 99 1010.9
20260507070109 62 104 0.0 0.0 0.00 0.02 0.02 99 1010.9
20260507065605 62 104 0.0 0.0 0.00 0.02 0.02 99 1010.5
20260507065103 62 104 0.0 0.0 0.00 0.02 0.02 99 1010.5
20260507064600 62 104 0.0 0.0 0.00 0.02 0.02 99 1010.5
20260507064059 62 104 0.0 0.0 0.00 0.02 0.02 99 1010.5
20260507063555 62 104 0.0 0.0 0.00 0.02 0.02 98 1010.2
20260507063053 62 104 0.0 0.0 0.00 0.02 0.02 98 1010.2
20260507062549 62 104 0.0 0.0 0.00 0.02 0.02 98 1010.5